TimeCDT,TemperatureF,Dew PointF,Humidity,Sea Level PressureIn,VisibilityMPH,Wind Direction,Wind SpeedMPH,Gust SpeedMPH,PrecipitationIn,Events,Conditions,WindDirDegrees,DateUTC
12:54 AM,51.1,44.1,77,30.06,10.0,SSW,4.6,-,N/A,,Clear,210,2011-10-24 05:54:00
1:54 AM,50.0,43.0,77,30.06,10.0,Calm,Calm,-,N/A,,Clear,0,2011-10-24 06:54:00
2:54 AM,48.9,43.0,80,30.06,10.0,SW,4.6,-,N/A,,Clear,230,2011-10-24 07:54:00
3:54 AM,48.9,43.0,80,30.05,10.0,SW,6.9,-,N/A,,Clear,220,2011-10-24 08:54:00
4:54 AM,50.0,44.6,82,30.05,10.0,SW,9.2,-,N/A,,Clear,220,2011-10-24 09:54:00
5:54 AM,50.0,44.1,80,30.07,10.0,WSW,5.8,-,N/A,,Clear,240,2011-10-24 10:54:00
6:54 AM,50.0,44.1,80,30.07,10.0,SW,8.1,-,N/A,,Partly Cloudy,230,2011-10-24 11:54:00
7:54 AM,53.1,46.0,77,30.09,10.0,SW,8.1,-,N/A,,Partly Cloudy,230,2011-10-24 12:54:00
8:54 AM,57.9,48.9,72,30.10,10.0,WSW,11.5,-,N/A,,Clear,240,2011-10-24 13:54:00
9:54 AM,62.1,51.1,67,30.11,10.0,West,11.5,19.6,N/A,,Clear,280,2011-10-24 14:54:00
10:54 AM,66.9,51.1,57,30.12,10.0,West,6.9,-,N/A,,Clear,270,2011-10-24 15:54:00
11:54 AM,70.0,46.0,42,30.13,10.0,WNW,13.8,-,N/A,,Clear,300,2011-10-24 16:54:00
12:54 PM,69.8,41.0,35,30.13,10.0,WNW,16.1,20.7,N/A,,Clear,290,2011-10-24 17:54:00
1:54 PM,71.1,37.0,29,30.12,10.0,NW,12.7,-,N/A,,Clear,310,2011-10-24 18:54:00
2:54 PM,71.1,39.0,31,30.12,10.0,NW,11.5,-,N/A,,Clear,310,2011-10-24 19:54:00
3:54 PM,70.0,35.1,28,30.14,10.0,NNW,10.4,-,N/A,,Clear,340,2011-10-24 20:54:00
4:54 PM,69.1,35.1,29,30.16,10.0,NNW,6.9,-,N/A,,Clear,330,2011-10-24 21:54:00
5:54 PM,64.0,36.0,35,30.17,10.0,North,3.5,-,N/A,,Clear,360,2011-10-24 22:54:00
6:54 PM,55.4,39.2,54,30.18,10.0,Calm,Calm,-,N/A,,Clear,0,2011-10-24 23:54:00
7:54 PM,52.0,39.0,61,30.19,10.0,Calm,Calm,-,N/A,,Clear,0,2011-10-25 00:54:00
8:54 PM,48.9,41.0,74,30.20,10.0,Calm,Calm,-,N/A,,Clear,0,2011-10-25 01:54:00
9:54 PM,50.0,42.1,74,30.21,10.0,Calm,Calm,-,N/A,,Clear,0,2011-10-25 02:54:00
10:54 PM,46.4,41.0,81,30.21,10.0,Calm,Calm,-,N/A,,Clear,0,2011-10-25 03:54:00
11:54 PM,45.0,41.0,86,30.21,10.0,Calm,Calm,-,N/A,,Clear,0,2011-10-25 04:54:00